Location: ?
(35.4214°N, 139.3011°E)
Time: 22:35:14
(UTC+00:00)

Resurs 01 Rocket - Pass Details

Date: 14 July 2020
Orbit: 635 x 644 km, 98.0° (Epoch: 10 August)

Event Time Altitude Azimuth Distance (km) Brightness Sun altitude
Exits shadow 11:16:40 18° 160° (SSE) 1,560 3.1 -14.1°
Maximum altitude 11:19:55 77° 77° (ENE) 655 1.5 -14.6°
Drops below altitude 10° 11:24:20 10° 351° (N) 2,026 4.9 -15.2°
Sets 11:26:32 0° 350° (N) 2,938 5.9 -15.6°
